CDT,Max TemperatureF,Mean TemperatureF,Min TemperatureF,Max Dew PointF,MeanDew PointF,Min DewpointF,Max Humidity, Mean Humidity, Min Humidity, Max Sea Level PressureIn, Mean Sea Level PressureIn, Min Sea Level PressureIn, Max VisibilityMiles, Mean VisibilityMiles, Min VisibilityMiles, Max Wind SpeedMPH, Mean Wind SpeedMPH, Max Gust SpeedMPH,PrecipitationIn, CloudCover, Events, WindDirDegrees
2013-6-1,90,80,71,78,74,71,100,83,54,29.99,29.92,29.84,10,10,1,16,8,26,1.45,6,Rain-Thunderstorm,177
2013-6-2,79,72,65,73,69,66,100,91,64,30.02,29.98,29.95,10,8,0,17,6,22,2.83,5,Rain-Thunderstorm,345
2013-6-3,83,72,62,69,63,57,100,78,42,30.04,29.99,29.94,10,9,3,8,2,,0.00,1,,52
2013-6-4,88,74,60,76,66,60,100,77,41,30.02,29.96,29.91,10,9,5,7,1,,0.00,1,,74
2013-6-5,89,78,68,78,73,69,100,84,53,29.97,29.91,29.82,10,8,3,8,1,,0.03,2,Rain-Thunderstorm,88
2013-6-6,79,74,68,76,70,65,100,89,64,29.96,29.88,29.82,10,10,2,16,4,22,0.40,3,Rain-Thunderstorm,312
2013-6-7,82,73,64,70,66,61,100,82,50,29.96,29.92,29.88,10,10,7,10,3,16,0.01,2,,359
2013-6-8,84,72,60,72,64,59,100,76,45,30.01,29.96,29.93,10,9,5,8,1,,0.00,2,,112
2013-6-9,87,76,65,73,69,64,100,81,48,30.00,29.96,29.89,10,10,5,13,3,18,0.00,2,Thunderstorm,218
2013-6-10,90,78,68,75,69,63,100,78,43,30.03,30.00,29.98,10,10,10,9,4,,0.00,0,,225
2013-6-11,91,82,72,79,73,68,100,76,46,30.10,30.05,30.02,10,10,10,7,4,,0.00,1,,195
2013-6-12,91,83,75,78,74,68,100,79,47,30.14,30.08,30.02,10,10,7,10,5,,0.00,1,,216
2013-6-13,92,83,74,82,75,69,100,82,47,30.10,30.02,29.94,10,9,0,8,4,,0.00,2,Fog,248
2013-6-14,90,80,69,77,71,67,100,73,49,30.03,29.99,29.95,10,10,7,9,2,,0.00,1,,55
2013-6-15,89,76,62,75,66,57,100,76,34,30.09,30.03,29.98,10,9,4,5,1,,0.00,0,,98
2013-6-16,87,78,69,79,73,70,100,91,66,30.08,30.03,29.99,10,9,2,18,1,25,0.15,2,Rain-Thunderstorm,194
2013-6-17,88,80,72,78,74,69,100,89,59,30.04,29.98,29.93,10,10,3,12,4,17,0.10,2,Rain-Thunderstorm,219
2013-6-18,83,76,68,77,73,68,100,97,72,30.03,29.98,29.92,10,9,1,14,3,21,1.50,6,Rain-Thunderstorm,244
2013-6-19,87,78,68,78,71,65,100,87,49,30.09,30.04,30.00,10,6,0,5,0,,0.01,5,Fog,80
2013-6-20,90,78,68,80,73,69,100,84,54,30.15,30.10,30.05,10,8,1,5,0,,0.02,2,Rain,148
2013-6-21,92,81,70,78,73,69,100,85,48,30.18,30.13,30.09,10,7,1,13,1,17,0.51,1,Rain-Thunderstorm,190
2013-6-22,91,80,69,78,72,66,100,80,44,30.15,30.09,30.02,10,8,2,8,1,9,0.00,1,,170
2013-6-23,90,81,72,77,72,66,100,77,45,30.11,30.07,30.02,10,9,3,9,4,9,0.00,1,,164
2013-6-24,91,82,73,77,72,66,100,79,44,30.16,30.10,30.05,10,10,5,14,4,23,0.00,1,Thunderstorm,194
2013-6-25,91,82,73,79,72,68,100,78,47,30.13,30.07,29.99,10,10,7,13,5,18,0.00,1,,194
2013-6-26,91,82,74,80,74,70,100,79,51,30.09,30.01,29.96,10,10,7,12,6,17,0.00,1,,207
2013-6-27,92,84,75,82,76,70,100,81,52,30.06,30.01,29.95,10,10,5,12,4,,0.00,0,,226
2013-6-28,93,84,75,82,74,69,100,76,51,29.99,29.89,29.78,10,10,2,12,3,21,0.35,1,Rain-Thunderstorm,242
2013-6-29,90,80,70,78,69,56,100,73,32,29.86,29.82,29.77,10,8,0,10,2,16,0.35,1,Fog,349
2013-6-30,86,75,64,69,62,56,100,65,37,29.91,29.85,29.80,10,10,10,10,4,17,0.00,1,,348